Regional Weather Roundup
Issued by NWS

Home | Current Version | Previous Version | Text Only | Print | Product List | Glossary On
Versions: 1 2 3 4 5 6 7 8 9 10 11 12 13 14 15 16 17 18 19 20 21 22 23 24 25 26 27 28 29 30 31 32 33 34 35 36 37 38 39 40 41 42 43 44 45 46 47 48 49 50
000
ASUS43 KDMX 200007
RWRIA

WEATHER ROUNDUP FOR IOWA
NATIONAL WEATHER SERVICE DES MOINES IA
600 PM CST FRI DEC 19 2014

NOTE: "FAIR" INDICATES FEW OR NO CLOUDS BELOW 12,000 FEET WITH NO
SIGNIFICANT WEATHER AND/OR OBSTRUCTIONS TO VISIBILITY.

* - THESE STATIONS ARE NOT NWS STATIONS...THUS NOT UNDER NWS
QUALITY CONTROL.  THEY ALSO DO NOT REPORT WEATHER SUCH
AS PRECIPITATION OR FOG.

IAZ001>003-012>014-020>022-031>034-043>046-200100-
   NORTHWEST IOWA

CITY           SKY/WX    TMP DP  RH WIND       PRES   REMARKS
CARROLL *      CLOUDY    32  30  93 S7        30.16S WCI  26
CHEROKEE *     CLOUDY    32  29  90 S12       30.14S WCI  23
DENISON *      CLOUDY    32  30  93 S7        30.13S WCI  26
LE MARS *      CLOUDY    32  28  86 S9        30.12F WCI  24
ORANGE CITY *  CLOUDY    32  27  80 S10       30.10F WCI  24
SHELDON *      CLOUDY    32  30  93 S10G18    30.11S WCI  24
SIOUX CITY     CLOUDY    34  28  79 S10       30.13F WCI  26
6HR MIN TEMP:  34; 6HR MAX TEMP:  35;

SPENCER        CLOUDY    33  27  78 S10       30.13F WCI  25
6HR MIN TEMP:  33; 6HR MAX TEMP:  34;

STORM LAKE *   CLOUDY    32  30  93 S10G20    30.14F WCI  24
$$

IAZ055>058-069>071-079>083-090>094-200100-
   SOUTHWEST IOWA

CITY           SKY/WX    TMP DP  RH WIND       PRES   REMARKS
ATLANTIC *     CLOUDY    30  28  93 S7G13     30.17S WCI  23
AUDUBON *      CLOUDY    30  27  86 S7        30.17S HAZE    WCI  23
CLARINDA *     CLOUDY    30  30 100 S8        30.21S WCI  23
COUNCIL BLFS * CLOUDY    30  30 100 S8        30.15R FOG     WCI  23
CRESTON *      CLOUDY    30  30 100 S9        30.18S FOG     WCI  22
HARLAN  *      CLOUDY    30  30 100 S8        30.19S WCI  23
LAMONI         CLOUDY    31  29  92 S6        30.19S WCI  25
6HR MIN TEMP:  31; 6HR MAX TEMP:  33;

RED OAK *      CLOUDY    30  28  93 S6        30.18S WCI  24
SHENANDOAH *   CLOUDY    30  30 100 S9        30.19S WCI  22
$$

IAZ047>049-059>061-072>074-084-200100-
   CENTRAL IOWA

CITY           SKY/WX    TMP DP  RH WIND       PRES   REMARKS
AMES           CLOUDY    30  26  85 SE8       30.20F WCI  22
6HR MIN TEMP:  30; 6HR MAX TEMP:  31;

ANKENY *       CLOUDY    32  28  86 SE7       30.21S WCI  26
CHARITON *     CLOUDY    32  30  93 SE6       30.20S FOG     WCI  26
DES MOINES     CLOUDY    33  28  81 SE6       30.20F WCI  28
6HR MIN TEMP:  32; 6HR MAX TEMP:  33;

GRINNELL*      CLOUDY    30  27  86 E6        30.22F WCI  24
KNOXVILLE *    CLOUDY    30  27  86 SE6       30.20S WCI  24
MARSHALLTOWN   CLOUDY    30  25  81 SE7       30.21F WCI  23
6HR MIN TEMP:  29; 6HR MAX TEMP:  31;

PELLA *        CLOUDY    31  27  88 SE6       30.23F WCI  25
PERRY *        CLOUDY    32  32 100 SE6       30.18F FOG     WCI  26
$$

IAZ004>006-015-016-023>025-035-036-200100-
   NORTH CENTRAL IOWA

CITY           SKY/WX    TMP DP  RH WIND       PRES   REMARKS
ALGONA *       CLOUDY    32  30  93 S8        30.17F WCI  25
CLARION *      CLOUDY    30  30 100 SE10      30.19F WCI  21
ESTHERVILLE    CLOUDY    31  28  89 S12       30.14S FOG     WCI  22
6HR MIN TEMP:  30; 6HR MAX TEMP:  32;

FORT DODGE *   CLOUDY    30  27  86 SE6       30.18F WCI  24
MASON CITY     CLOUDY    29  27  92 SE12      30.20F WCI  19
6HR MIN TEMP:  28; 6HR MAX TEMP:  30;

FOREST CITY *  CLOUDY    32  30  93 S8        30.18F WCI  25
IOWA FALLS *   CLOUDY    30  27  90 SE7       30.21S WCI  23
$$

IAZ007>011-017>019-026>030-037>042-050>054-066-200100-
   NORTHEAST IOWA

CITY           SKY/WX    TMP DP  RH WIND       PRES   REMARKS
CEDAR RAPIDS   CLOUDY    29  22  75 SE5       30.24F WCI  24
6HR MIN TEMP:  29; 6HR MAX TEMP:  32;

CHARLES CITY * CLOUDY    28  25  86 S9        30.22F WCI  20
CLINTON *      CLOUDY    25  19  80 NE6       30.30S WCI  18
DECORAH *      CLOUDY    28  23  80 SE6       30.23F WCI  22
DUBUQUE        CLOUDY    26  21  81 CALM      30.25F
6HR MIN TEMP:  26; 6HR MAX TEMP:  29;

MONTICELLO *   CLOUDY    28  25  86 CALM      30.26S
OELWEIN *      CLOUDY    28  23  80 SE7       30.24F WCI  21
WATERLOO       CLOUDY    30  24  78 SE7       30.23F WCI  23
6HR MIN TEMP:  29; 6HR MAX TEMP:  30; 6HR PCP: TRACE;

$$

IAZ064-065-067-068-078-200100-
   EAST CENTRAL IOWA

CITY           SKY/WX    TMP DP  RH WIND       PRES   REMARKS
DAVENPORT      CLOUDY    26  21  81 E7        30.27F WCI  18
6HR MIN TEMP:  26; 6HR MAX TEMP:  31;

IOWA CITY      CLOUDY    30  22  72 SE5       30.27F WCI  25
6HR MIN TEMP:  30; 6HR MAX TEMP:  32;

MT. PLEASANT * CLOUDY    30  25  82 CALM      30.26S
MUSCATINE *    CLOUDY    32  21  64 CALM      30.28S
QUAD CITIES    CLOUDY    25  19  78 E7        30.27S WCI  17
6HR MIN TEMP:  25; 6HR MAX TEMP:  32;

$$

IAZ062-063-075>077-085>089-095>099-200100-
   SOUTHEAST IOWA

CITY           SKY/WX    TMP DP  RH WIND       PRES   REMARKS
BURLINGTON     CLOUDY    32  24  72 E5        30.26F WCI  27
6HR MIN TEMP:  31; 6HR MAX TEMP:  34; 6HR PCP: TRACE;

FAIRFIELD *    CLOUDY    30  25  80 E7        30.24F WCI  23
FORT MADISON * CLOUDY    34  28  80 CALM      30.26F
KEOKUK *       CLOUDY    32  27  80 E6        30.25F WCI  26
OSKALOOSA *    CLOUDY    29  26  88 SE8       30.23F WCI  21
CENTERVILLE *  CLOUDY    32  32 100 E6        30.22F WCI  26
OTTUMWA        CLOUDY    30  25  81 E7        30.23S WCI  23
6HR MIN TEMP:  30; 6HR MAX TEMP:  31;

WASHINGTON *   CLOUDY    30  28  93 SE6       30.25F WCI  24
$$

ABBREVIATIONS USED IN REMARKS
   TC - TEMPERATURES IN CELSIUS
  WCI - WIND CHILL INDEX
   HX - HEAT INDEX
  VSB - VISIBILITY
$$




USA.gov is the U.S. government's official web portal to all federal, state and local government web resources and services.